sat.trackr.live / text

‹ back to catalog

STARLINK-11145 [DTC]

NORAD 59945 · 2024-107A

PAYLOAD ACTIVE UNKNOWN

§ Identity

Operator
Country
US
Launch date
2024-06-05
Launch site
AFETR
Launch vehicle
Mass (kg)
RCS (m²)

Purposes: comms

External: N2YO · Heavens-Above · Gunter

§ Orbital elements

Epoch: 2026-09-21T13:10:16.056480Z

Period
91.74 min
Inclination
53.1596°
Eccentricity
0.0001477
Mean motion
15.69701564 rev/d
Perigee alt
358.8 km
Apogee alt
360.7 km
Semi-major
6,737.9 km
B*
-6.4591e-6
RAAN
6.0619°
Arg perigee
79.4374°
Mean anomaly
280.6810°
Rev number
13,290

§ Raw data

STARLINK-11145 [DTC]1 59945U 24107A   26264.54879695 -.00001371  00000+0 -64591-5 0  99922 59945  53.1596   6.0619 0001477  79.4374 280.6810 15.69701564132902

JSON: /api/v1/satellites/59945 · /tle

For live sub-satellite position, see the globe view (requires WebGL).

§ Visibility from observer

Set your observer location to see the next 7 days of passes ≥ 10°. The values pass through the URL so the page stays shareable.

No JS? Fill the form by hand. The geolocation button needs JavaScript.